Weather in Mikhaylovka

Russia / Republic of Bashkortostan     53°26′48″N   58°43′23″E
temp.,
°C
wind,
m/s
gust,
m/s
humid.,
%
clouds,
%
prec.,
mm/h
press.,
hPa
HPBL,
m
3 march, wed
wed323:00−13sw41187100 0.0 1009377
02:00−11ssw41388100 0.0 1007413
05:00−9sw41287100 0.0 1005464
08:00−8sw4989100 0.0 1004303
11:00−5sw4986100 0.0 1004706
14:00−2sw5787100 0.1 1002805
17:00−1sw4792100 0.3 1002612
20:00−4sw349196 0.1 100260
4 march, thu
thu423:00−7sw238989 0.1 100225
02:00−9w229084 0.0 100121
05:00−11wsw348857 0.0 100234
08:00−13w34870 0.0 100375
11:00−8w512810 0.0 1005703
14:00−6w7127867 0.0 1005913
17:00−7wsw7138057 0.0 1005631
20:00−11sw5138515 0.0 1005356
5 march, fri
fri523:00−9sw5158416 0.0 1005465
02:00−6wsw7178527 0.0 1002694
05:00−4wsw7178538 0.1 1002671
08:00−3wsw6158727 0.1 1004640
11:00−2sw7148428 0.1 10051137
14:000sw9168398 0.0 10041191
17:00−1sw8168499 0.1 10031158
20:00−3sw61590100 0.0 1002713
6 march, sat
sat623:00−1sw8178671 0.1 1001890
02:00−2w10177952 0.3 1004883
05:00−10w478326 0.3 1010125
08:00−14wsw227853 0.0 101321
11:00−10sw228277 0.0 1014145
14:00−6ssw2369100 0.0 1013629
17:00−6s2280100 0.0 1010394
20:00−8e2497100 1.8 1008163
7 march, sun
sun723:00−9ene3596100 3.9 1005257
02:00−9ne4895100 2.1 1003404
05:00−10n4895100 3.5 1005379
08:00−14n349598 0.1 100867
11:00−11s019097 0.3 1010196
14:00−9s349173 0.1 1011331
17:00−7w368179 0.3 1011367
20:00−13w448611 0.0 101469